W2JV-2 Weather Reports


Display with metric or nautical units.
time (UTC)temp
F
wind
direction
speed
MPH
gust
MPH
rain 1hr
in
rain 24hr
in
rain mn
in
humidity
%
barometer
mb
20260503032503 51 3 0.0 0.0 0.00 0.02 0.02 67 1010.4
20260503032002 51 3 0.0 1.0 0.00 0.02 0.02 67 1010.4
20260503031502 51 3 0.0 0.0 0.00 0.02 0.02 66 1010.5
20260503031002 51 3 0.0 0.0 0.00 0.02 0.02 66 1010.4
20260503030502 51 3 0.0 0.0 0.00 0.02 0.02 66 1010.4
20260503025502 51 3 0.0 2.0 0.00 0.02 0.02 66 1010.4
20260503025004 51 3 0.0 1.0 0.00 0.02 0.02 67 1010.5
20260503024503 51 3 0.0 1.0 0.00 0.02 0.02 67 1010.5
20260503023502 51 11 0.0 1.0 0.00 0.02 0.02 68 1010.6
20260503023002 51 10 0.0 1.0 0.00 0.02 0.02 69 1010.6
20260503022503 51 2 0.0 2.0 0.00 0.02 0.02 70 1010.6
20260503022002 51 2 0.0 1.0 0.00 0.02 0.02 70 1010.7
20260503021503 52 16 0.0 2.0 0.00 0.02 0.02 71 1010.6
20260503021002 52 352 0.0 2.0 0.00 0.02 0.02 71 1010.9
20260503020502 52 354 0.0 1.0 0.00 0.02 0.02 71 1010.8
20260503015502 52 266 0.0 1.0 0.00 0.02 0.02 71 1010.6
20260503013503 52 263 0.0 2.0 0.00 0.02 0.02 70 1010.6
20260503013003 52 167 0.0 1.0 0.00 0.02 0.02 70 1010.6
20260503012508 52 167 0.0 1.0 0.00 0.02 0.02 69 1010.6
20260503012002 52 198 0.0 0.0 0.00 0.02 0.02 69 1010.5
20260503011503 52 198 0.0 0.0 0.00 0.02 0.02 69 1010.3
20260503011003 52 198 0.0 0.0 0.00 0.02 0.02 68 1010.3
20260503010502 52 199 0.0 0.0 0.00 0.02 0.02 68 1010.3
20260503010002 53 198 0.0 0.0 0.00 0.02 0.02 68 1010.2
20260503005503 53 195 0.0 2.0 0.00 0.02 0.02 67 1010.1
20260503005002 53 190 0.0 0.0 0.00 0.02 0.02 66 1010.1
20260503004502 53 190 0.0 0.0 0.00 0.02 0.02 66 1010.1
20260503004003 53 189 0.0 0.0 0.00 0.02 0.02 66 1010.0
20260503003502 54 190 0.0 0.0 0.00 0.02 0.02 66 1009.9
20260503003002 54 190 0.0 0.0 0.00 0.02 0.02 66 1009.9
20260503002502 54 191 0.0 0.0 0.00 0.02 0.02 65 1009.9
20260503002003 54 190 0.0 0.0 0.00 0.02 0.02 65 1010.0
20260503001502 54 190 0.0 0.0 0.00 0.02 0.02 65 1009.9
20260503001003 55 190 0.0 0.0 0.00 0.02 0.02 64 1009.9
20260503000002 55 189 0.0 0.0 0.00 0.02 0.02 63 1009.9
20260502234503 56 189 0.0 0.0 0.00 0.02 0.02 61 1009.8
20260502234002 56 189 0.0 0.0 0.00 0.02 0.02 60 1009.7
20260502232502 57 190 0.0 0.0 0.00 0.02 0.02 61 1009.7
20260502232002 57 190 0.0 0.0 0.00 0.02 0.02 61 1009.7
20260502231003 57 190 0.0 0.0 0.00 0.02 0.02 59 1009.7
20260502230502 57 190 0.0 0.0 0.00 0.02 0.02 60 1009.7
20260502230004 57 190 0.0 0.0 0.00 0.02 0.02 60 1009.6
20260502225503 57 190 0.0 0.0 0.00 0.02 0.02 60 1009.7
20260502225002 57 190 0.0 0.0 0.00 0.02 0.02 61 1009.7
20260502224503 57 190 0.0 0.0 0.00 0.02 0.02 62 1009.8
20260502224003 57 190 0.0 0.0 0.00 0.02 0.02 61 1009.7
20260502223503 57 190 0.0 0.0 0.00 0.02 0.02 60 1009.6
20260502223003 58 190 0.0 0.0 0.00 0.02 0.02 58 1009.6
20260502222004 58 336 0.0 0.0 0.00 0.02 0.02 59 1009.6
20260502221502 58 338 0.0 0.0 0.00 0.02 0.02 59 1009.7
20260502220002 58 335 0.0 0.0 0.00 0.02 0.02 58 1009.6
20260502215502 58 357 0.0 0.0 0.00 0.02 0.02 58 1009.6
20260502215002 58 357 0.0 0.0 0.00 0.02 0.02 58 1009.6
20260502214503 58 357 0.0 0.0 0.00 0.02 0.02 58 1009.7
20260502214003 58 357 0.0 3.0 0.00 0.02 0.02 58 1009.7
20260502213503 59 297 1.0 3.0 0.00 0.02 0.02 56 1009.6
20260502212503 59 347 0.0 0.0 0.00 0.02 0.02 58 1009.6
20260502212004 59 35 0.0 2.0 0.00 0.02 0.02 58 1009.6
20260502211502 59 12 1.0 3.0 0.00 0.02 0.02 56 1009.5
20260502211003 59 330 1.0 3.0 0.00 0.02 0.02 57 1009.5
20260502210502 59 272 0.0 3.0 0.00 0.02 0.02 58 1009.5
20260502210002 59 327 1.0 3.0 0.00 0.02 0.02 59 1009.5
20260502205502 59 326 2.0 3.0 0.00 0.02 0.02 58 1009.4
20260502204503 59 334 3.0 6.0 0.00 0.02 0.02 58 1009.5
20260502204003 59 7 1.0 3.0 0.00 0.02 0.02 59 1009.4
20260502203502 59 33 0.0 2.0 0.00 0.02 0.02 60 1009.5
20260502203003 59 103 1.0 3.0 0.00 0.02 0.02 61 1009.6
20260502202502 59 21 1.0 3.0 0.00 0.02 0.02 61 1009.7
20260502201502 59 326 2.0 5.0 0.00 0.02 0.02 59 1009.8
20260502201002 59 340 2.0 5.0 0.00 0.02 0.02 58 1009.9
20260502200502 59 27 1.0 3.0 0.00 0.02 0.02 60 1009.9
20260502200003 60 34 2.0 5.0 0.00 0.02 0.02 59 1010.0
20260502195003 61 36 1.0 3.0 0.00 0.02 0.02 59 1010.1
20260502194502 61 4 2.0 5.0 0.00 0.02 0.02 59 1010.2
20260502194003 61 43 1.0 3.0 0.00 0.02 0.02 60 1010.2
20260502193503 61 326 4.0 7.0 0.00 0.02 0.02 58 1010.2
20260502193002 61 343 3.0 8.0 0.00 0.02 0.02 59 1010.3
20260502192502 61 329 2.0 3.0 0.00 0.02 0.02 61 1010.3
20260502192002 60 251 2.0 6.0 0.00 0.02 0.02 58 1010.4
20260502191004 60 7 2.0 3.0 0.00 0.02 0.02 55 1010.4
20260502190503 60 15 1.0 3.0 0.00 0.02 0.02 58 1010.5
20260502190004 60 273 1.0 5.0 0.00 0.02 0.02 59 1010.4
20260502185502 59 231 1.0 5.0 0.00 0.02 0.02 60 1010.5
20260502185003 58 352 0.0 2.0 0.00 0.02 0.02 62 1010.5
20260502184503 57 350 0.0 1.0 0.00 0.02 0.02 61 1010.6
20260502184003 57 305 0.0 0.0 0.00 0.02 0.02 61 1010.7
20260502183502 57 305 0.0 2.0 0.00 0.02 0.02 62 1010.8
20260502182503 57 277 0.0 0.0 0.00 0.02 0.02 62 1010.9
20260502181502 57 312 0.0 0.0 0.00 0.02 0.02 62 1010.8
20260502181002 58 348 0.0 0.0 0.00 0.02 0.02 61 1010.7
20260502170503 59 321 0.0 2.0 0.00 0.02 0.02 59 1011.1
20260502163503 58 349 1.0 3.0 0.00 0.02 0.02 63 1011.1
20260502163003 58 253 1.0 2.0 0.00 0.02 0.02 63 1011.1
20260502162504 58 216 1.0 3.0 0.00 0.02 0.02 64 1011.1
20260502162002 58 265 1.0 3.0 0.00 0.02 0.02 64 1011.2
20260502161003 58 297 1.0 2.0 0.00 0.02 0.02 64 1011.4
20260502160503 57 287 1.0 2.0 0.00 0.02 0.02 64 1011.4
20260502152002 55 191 0.0 0.0 0.00 0.02 0.02 67 1011.6
20260502151003 55 194 0.0 0.0 0.00 0.02 0.02 67 1011.7
20260502130502 53 59 1.0 2.0 0.00 0.02 0.02 77 1011.9
20260502123503 53 335 0.0 0.0 0.00 0.02 0.02 80 1011.8
20260502123003 53 335 0.0 0.0 0.00 0.02 0.02 81 1011.8
20260502122502 53 335 0.0 0.0 0.00 0.02 0.02 81 1011.9
20260502122002 53 349 0.0 0.0 0.00 0.02 0.02 81 1011.9
20260502121503 53 227 0.0 0.0 0.00 0.02 0.02 81 1012.0
20260502121003 53 227 0.0 0.0 0.00 0.02 0.02 81 1012.0
20260502120504 53 236 0.0 0.0 0.00 0.02 0.02 81 1012.1
20260502115504 53 236 0.0 0.0 0.02 0.02 0.02 81 1011.9
20260502115005 52 236 0.0 0.0 0.02 0.02 0.02 81 1011.7
20260502114502 52 231 0.0 0.0 0.02 0.02 0.02 80 1011.5
20260502114002 52 158 0.0 0.0 0.02 0.02 0.02 79 1011.3
20260502113503 52 148 0.0 0.0 0.02 0.02 0.02 78 1011.5
20260502113002 52 63 0.0 0.0 0.02 0.02 0.02 77 1011.3
20260502112503 52 88 0.0 0.0 0.02 0.02 0.02 76 1011.2
20260502112003 52 165 0.0 0.0 0.02 0.02 0.02 76 1011.3
20260502111502 52 146 0.0 0.0 0.02 0.02 0.02 75 1011.2
20260502110502 52 239 0.0 0.0 0.02 0.02 0.02 74 1011.4
20260502110002 52 239 0.0 0.0 0.00 0.00 0.00 73 1011.7
20260502105502 52 239 0.0 1.0 0.00 0.00 0.00 73 1012.1
20260502105003 52 239 0.0 1.0 0.00 0.00 0.00 73 1012.0
20260502104503 52 239 0.0 0.0 0.00 0.00 0.00 73 1011.6
20260502104003 52 239 0.0 1.0 0.00 0.00 0.00 73 1011.6
20260502103003 52 239 0.0 0.0 0.00 0.00 0.00 73 1011.6
20260502102503 51 239 0.0 2.0 0.00 0.00 0.00 73 1011.7
20260502102003 51 219 0.0 2.0 0.00 0.00 0.00 73 1011.7
20260502101502 51 235 1.0 2.0 0.00 0.00 0.00 73 1011.5
20260502101003 51 211 0.0 2.0 0.00 0.00 0.00 73 1011.4
20260502100502 51 235 1.0 2.0 0.00 0.00 0.00 73 1011.4
20260502091503 51 211 1.0 2.0 0.00 0.00 0.00 74 1011.2
20260502091002 51 211 0.0 2.0 0.00 0.00 0.00 74 1011.0
20260502090503 51 208 0.0 2.0 0.00 0.00 0.00 74 1011.0
20260502071503 51 190 0.0 1.0 0.00 0.00 0.00 73 1011.2
20260502071002 51 153 0.0 2.0 0.00 0.00 0.00 73 1011.2
20260502070502 51 234 0.0 2.0 0.00 0.00 0.00 72 1011.3
20260502070004 51 219 0.0 2.0 0.00 0.00 0.00 72 1011.3
20260502065003 51 234 0.0 2.0 0.00 0.00 0.00 72 1011.5
20260502064503 51 217 0.0 2.0 0.00 0.00 0.00 71 1011.4
20260502063503 51 193 0.0 2.0 0.00 0.00 0.00 71 1011.4
20260502063003 52 172 0.0 3.0 0.00 0.00 0.00 71 1011.5
20260502062502 52 183 0.0 3.0 0.00 0.00 0.00 71 1011.5
20260502062003 52 187 0.0 2.0 0.00 0.00 0.00 70 1011.6
20260502061502 52 239 1.0 3.0 0.00 0.00 0.00 70 1011.8
20260502061002 52 237 1.0 3.0 0.00 0.00 0.00 70 1012.0
20260502060003 52 218 0.0 3.0 0.00 0.00 0.00 70 1011.5
20260502055503 52 209 0.0 2.0 0.00 0.00 0.00 70 1011.5
20260502055003 52 212 1.0 3.0 0.00 0.00 0.00 69 1011.5
20260502054503 52 197 0.0 3.0 0.00 0.00 0.00 69 1011.6
20260502054004 52 172 0.0 2.0 0.00 0.00 0.00 69 1011.5
20260502053502 52 213 0.0 2.0 0.00 0.00 0.00 69 1011.4
20260502053003 52 202 0.0 3.0 0.00 0.00 0.00 69 1011.4
20260502052503 52 181 0.0 2.0 0.00 0.00 0.00 69 1011.4
20260502051503 52 188 0.0 2.0 0.00 0.00 0.00 68 1011.5
20260502051003 52 197 0.0 2.0 0.00 0.00 0.00 68 1011.5
20260502050503 52 163 0.0 2.0 0.00 0.00 0.00 68 1011.5
20260502050003 52 212 0.0 3.0 0.00 0.00 0.00 68 1011.6
20260502045504 52 194 0.0 2.0 0.00 0.00 0.00 68 1011.6
20260502045003 52 221 1.0 3.0 0.00 0.00 0.00 68 1011.7
20260502044504 52 187 1.0 2.0 0.00 0.00 0.00 68 1011.7
20260502043503 52 198 0.0 2.0 0.00 0.00 0.00 68 1011.8
20260502043002 52 236 0.0 3.0 0.00 0.00 0.00 68 1011.9
20260502042502 52 225 1.0 3.0 0.00 0.00 0.00 68 1011.9
20260502042004 52 180 0.0 2.0 0.00 0.00 0.00 68 1011.9
20260502041503 51 191 1.0 3.0 0.00 0.00 0.00 68 1012.0
20260502041004 51 189 1.0 3.0 0.00 0.00 0.00 69 1011.9
20260502040503 51 173 1.0 3.0 0.00 0.00 0.00 69 1011.7
20260502035503 51 181 0.0 3.0 0.00 0.00 0.00 69 1011.6
20260502035003 51 201 0.0 2.0 0.00 0.00 0.00 69 1011.6
20260502034503 51 216 1.0 3.0 0.00 0.00 0.00 69 1011.7
20260502034003 51 227 0.0 3.0 0.00 0.00 0.00 69 1011.8
20260502033503 51 218 0.0 3.0 0.00 0.00 0.00 69 1011.7
20260502033003 51 204 1.0 3.0 0.00 0.00 0.00 69 1011.8